Glenwood, MN

7:27 PM CDT on March 25, 2017 (GMT -0500)
Glenwood Municipal

Weather History for KGHW - January, 2013

Change the Weather History Date:

Wednesday, January 23, 2013

  Actual Average Record
Temperature  
Mean Temperature -3 °F -  
Max Temperature 5 °F 21 °F 38 °F (1989)
Min Temperature -11 °F 0 °F -30 °F (1952)
Degree Days  
Heating Degree Days 68    
Moisture  
Dew Point -8 °F    
Average Humidity 73    
Maximum Humidity 92    
Minimum Humidity 55    
Precipitation  
Precipitation 0.00 in - - ()
Sea Level Pressure  
Sea Level Pressure 30.29 in    
Wind  
Wind Speed 9 mph (WNW)    
Max Wind Speed 24 mph    
Max Gust Speed 33 mph    
Visibility 9 miles    
Events Snow    
Averages and records for this station are not official NWS values.
T = Trace of Precipitation, MM = Missing Value Source: NWS Daily Summary

Daily Weather History Graph

Daily Weather History Graph

Search for Another Location

Airport or City:

Trip Planner

Search our weather history database for the weather conditions in past years. The results will help you decide how hot, cold, wet, or windy it might be!

Date:

Astronomy

Jan. 23, 2013 Rise Set
Actual Time 7:51 AM CST 5:15 PM CST
Civil Twilight 7:19 AM CST 5:47 PM CST
Nautical Twilight 6:43 AM CST 6:23 PM CST
Astronomical Twilight 6:08 AM CST 6:58 PM CST
Moon 2:23 PM CST (1/23) 5:06 AM CST (1/23)
Length of Visible Light 10h 28m
Length of Day
9h 23m
Waxing Gibbous, 89% of the Moon is Illuminated
Jan 23
Waxing Gibbous
Jan 26
Full
Feb 3
Last Quarter
Feb 10
New
Feb 17
First Quarter

Hourly Weather History & Observations

Time (CST) Temp. Windchill Dew Point Humidity Pressure Visibility Wind Dir Wind Speed Gust Speed Precip Events Conditions
12:14 AM 3.2 °F -6.2 °F -2.2 °F 78% 30.15 in 10.0 mi South 4.6 mph - N/A   Overcast
12:33 AM 3.2 °F -4.2 °F -2.2 °F 78% 30.15 in 10.0 mi South 3.5 mph - N/A   Overcast
12:53 AM 3.2 °F -4.2 °F -2.2 °F 78% 30.14 in 10.0 mi South 3.5 mph - N/A   Overcast
1:14 AM 3.2 °F -6.2 °F -2.2 °F 78% 30.14 in 10.0 mi South 4.6 mph - N/A Snow Light Snow
1:33 AM 3.2 °F -6.2 °F -0.4 °F 85% 30.14 in 10.0 mi SSW 4.6 mph - N/A   Overcast
1:53 AM 3.2 °F -4.2 °F -0.4 °F 85% 30.14 in 7.0 mi SSW 3.5 mph - N/A Snow Light Snow
2:14 AM 5.0 °F -4.1 °F -0.4 °F 78% 30.13 in 10.0 mi SSW 4.6 mph - N/A Snow Light Snow
2:33 AM 5.0 °F -2.1 °F -0.4 °F 78% 30.13 in 10.0 mi SSW 3.5 mph - N/A Snow Light Snow
2:53 AM 5.0 °F -2.1 °F -0.4 °F 78% 30.12 in 4.0 mi South 3.5 mph - N/A Snow Light Snow
3:14 AM 5.0 °F -2.1 °F -0.4 °F 78% 30.12 in 10.0 mi SSW 3.5 mph - N/A Snow Light Snow
3:33 AM 5.0 °F -2.1 °F 1.4 °F 85% 30.12 in 10.0 mi SSW 3.5 mph - N/A Snow Light Snow
3:53 AM 5.0 °F -2.1 °F 1.4 °F 85% 30.11 in 10.0 mi SSW 3.5 mph - N/A   Overcast
4:14 AM 3.2 °F -4.2 °F -0.4 °F 85% 30.11 in 10.0 mi SSW 3.5 mph - N/A   Overcast
4:33 AM 3.2 °F - -0.4 °F 85% 30.10 in 10.0 mi Calm Calm - N/A   Scattered Clouds
4:53 AM 1.4 °F -8.3 °F -0.4 °F 92% 30.10 in 10.0 mi SW 4.6 mph - N/A   Clear
5:14 AM 1.4 °F -9.9 °F -2.2 °F 85% 30.10 in 10.0 mi SW 5.8 mph - N/A   Mostly Cloudy
5:33 AM 3.2 °F -7.8 °F -0.4 °F 85% 30.11 in 10.0 mi SW 5.8 mph - N/A   Overcast
5:53 AM 3.2 °F -6.2 °F 1.4 °F 92% 30.11 in 10.0 mi WSW 4.6 mph - N/A   Overcast
6:13 AM 3.2 °F -7.8 °F 1.4 °F 92% 30.11 in 10.0 mi WSW 5.8 mph - N/A   Overcast
6:54 AM 5.0 °F -8.1 °F 1.4 °F 85% 30.12 in 10.0 mi WSW 8.1 mph - N/A   Overcast
7:14 AM 3.2 °F -10.3 °F 1.4 °F 92% 30.12 in 10.0 mi West 8.1 mph - N/A Snow Light Snow
7:33 AM 3.2 °F -10.3 °F 1.4 °F 92% 30.12 in 10.0 mi West 8.1 mph - N/A   Mostly Cloudy
7:54 AM 3.2 °F -10.3 °F -0.4 °F 85% 30.13 in 10.0 mi West 8.1 mph - N/A   Clear
8:14 AM 3.2 °F -12.2 °F -0.4 °F 85% 30.14 in 10.0 mi West 10.4 mph - N/A   Clear
8:33 AM 3.2 °F -13.1 °F 1.4 °F 92% 30.14 in 7.0 mi WNW 11.5 mph - N/A Snow Light Snow
8:54 AM 3.2 °F -12.2 °F 1.4 °F 92% 30.15 in 3.0 mi WNW 10.4 mph - N/A Snow Light Snow
9:13 AM 3.2 °F -12.2 °F 1.4 °F 92% 30.16 in 10.0 mi WNW 10.4 mph - N/A   Overcast
9:33 AM 3.2 °F -12.2 °F -0.4 °F 85% 30.17 in 10.0 mi WNW 10.4 mph - N/A   Scattered Clouds
9:54 AM 5.0 °F -14.2 °F -0.4 °F 78% 30.19 in 5.0 mi WNW 17.3 mph 23.0 mph N/A Snow Light Snow
10:13 AM 3.2 °F -17.1 °F -0.4 °F 85% 30.20 in 5.0 mi WNW 18.4 mph - N/A Snow Light Snow
10:33 AM 3.2 °F -16.5 °F -2.2 °F 78% 30.22 in 7.0 mi WNW 17.3 mph - N/A   Scattered Clouds
10:54 AM 5.0 °F -15.2 °F -2.2 °F 72% 30.23 in 10.0 mi NW 19.6 mph 24.2 mph N/A   Clear
11:13 AM 5.0 °F -14.7 °F -4.0 °F 66% 30.23 in 5.0 mi NW 18.4 mph 24.2 mph N/A   Haze
11:33 AM 5.0 °F -14.2 °F -5.8 °F 61% 30.24 in 7.0 mi NW 17.3 mph 26.5 mph N/A   Clear
11:54 AM 3.2 °F -17.1 °F -5.8 °F 66% 30.25 in 7.0 mi NW 18.4 mph 23.0 mph N/A   Clear
12:13 PM 3.2 °F -18.1 °F -5.8 °F 66% 30.26 in 7.0 mi NW 20.7 mph 26.5 mph N/A   Clear
12:33 PM 3.2 °F -17.6 °F -5.8 °F 66% 30.26 in 10.0 mi NW 19.6 mph - N/A   Clear
12:54 PM 3.2 °F -17.1 °F -7.6 °F 61% 30.26 in 10.0 mi NNW 18.4 mph 23.0 mph N/A   Clear
1:13 PM 1.4 °F -19.4 °F -7.6 °F 66% 30.27 in 10.0 mi NW 18.4 mph 26.5 mph N/A   Clear
1:33 PM 1.4 °F -20.5 °F -7.6 °F 66% 30.28 in 10.0 mi NNW 20.7 mph - N/A   Clear
1:54 PM 1.4 °F -18.8 °F -9.4 °F 61% 30.29 in 10.0 mi NNW 17.3 mph - N/A   Clear
2:13 PM 1.4 °F -20.5 °F -9.4 °F 61% 30.30 in 10.0 mi NW 20.7 mph - N/A   Clear
2:34 PM -0.4 °F -23.3 °F -11.2 °F 60% 30.32 in 5.0 mi NW 21.9 mph 28.8 mph N/A Snow Light Snow
2:54 PM -0.4 °F -24.3 °F -13.0 °F 55% 30.32 in 7.0 mi NNW 24.2 mph 33.4 mph N/A Snow Light Snow
3:13 PM -0.4 °F -22.3 °F -13.0 °F 55% 30.34 in 10.0 mi NW 19.6 mph 25.3 mph N/A   Clear
3:33 PM -2.2 °F -25.7 °F -14.8 °F 55% 30.36 in 10.0 mi NNW 21.9 mph 26.5 mph N/A   Clear
3:54 PM -2.2 °F -26.7 °F -14.8 °F 55% 30.37 in 10.0 mi NNW 24.2 mph 28.8 mph N/A   Clear
4:13 PM -2.2 °F -25.7 °F -14.8 °F 55% 30.38 in 10.0 mi NNW 21.9 mph 25.3 mph N/A   Clear
4:33 PM -2.2 °F -22.9 °F -14.8 °F 55% 30.40 in 10.0 mi NW 16.1 mph 20.7 mph N/A   Clear
4:53 PM -4.0 °F -23.0 °F -14.8 °F 60% 30.42 in 10.0 mi NW 12.7 mph - N/A   Clear
5:13 PM -5.8 °F -25.2 °F -14.8 °F 65% 30.43 in 10.0 mi NW 12.7 mph - N/A   Clear
5:34 PM -5.8 °F -27.5 °F -16.6 °F 60% 30.45 in 10.0 mi NNW 16.1 mph - N/A   Clear
5:53 PM -5.8 °F -22.4 °F -16.6 °F 60% 30.45 in 10.0 mi NNW 9.2 mph - N/A   Clear
6:13 PM -7.6 °F -28.3 °F -16.6 °F 65% 30.46 in 10.0 mi NW 13.8 mph 19.6 mph N/A   Clear
6:34 PM -7.6 °F -28.3 °F -16.6 °F 65% 30.47 in 10.0 mi NNW 13.8 mph - N/A   Clear
6:53 PM -7.6 °F -25.7 °F -16.6 °F 65% 30.48 in 10.0 mi NNW 10.4 mph - N/A   Clear
7:13 PM -7.6 °F -27.5 °F -16.6 °F 65% 30.48 in 10.0 mi NNW 12.7 mph - N/A   Clear
7:34 PM -9.4 °F -28.9 °F -16.6 °F 71% 30.49 in 10.0 mi NNW 11.5 mph - N/A   Clear
7:53 PM -9.4 °F -26.8 °F -16.6 °F 71% 30.49 in 10.0 mi NNW 9.2 mph 16.1 mph N/A   Clear
8:13 PM -9.4 °F -28.9 °F -18.4 °F 65% 30.51 in 10.0 mi NNW 11.5 mph - N/A   Clear
8:34 PM -9.4 °F -27.9 °F -18.4 °F 65% 30.51 in 10.0 mi North 10.4 mph - N/A   Clear
8:53 PM -11.2 °F -27.8 °F -18.4 °F 70% 30.51 in 10.0 mi North 8.1 mph - N/A   Clear
9:13 PM -11.2 °F -24.8 °F -18.4 °F 70% 30.52 in 10.0 mi North 5.8 mph - N/A   Clear
9:34 PM -11.2 °F -26.4 °F -18.4 °F 70% 30.53 in 10.0 mi North 6.9 mph - N/A   Clear
9:53 PM -11.2 °F -26.4 °F -18.4 °F 70% 30.54 in 10.0 mi North 6.9 mph - N/A   Clear
10:13 PM -11.2 °F -27.8 °F -18.4 °F 70% 30.55 in 10.0 mi North 8.1 mph - N/A   Clear
10:34 PM -11.2 °F -27.8 °F -18.4 °F 70% 30.55 in 10.0 mi North 8.1 mph - N/A   Clear
10:53 PM -11.2 °F -29.0 °F -18.4 °F 70% 30.56 in 10.0 mi North 9.2 mph - N/A   Clear
11:13 PM -11.2 °F -24.8 °F -18.4 °F 70% 30.57 in 10.0 mi North 5.8 mph - N/A   Clear
11:53 PM -11.2 °F -31.1 °F -20.2 °F 64% 30.56 in 10.0 mi NNE 11.5 mph - N/A   Clear